Location: Newark
(12.4436°N, 0.6167°W)
Time: 05:05:01
(UTC+00:00)

deb Explorer IX - Pass Details

Date: 17 December 2019
Orbit: 548 x 1101 km, 38.8° (Epoch: 18 January)

Event Time Altitude Azimuth Distance (km) Brightness Sun altitude
Rises 11:52:58 0° 255° (WSW) 2,703 ? 54.2°
Reaches altitude 10° 11:55:25 10° 269° (W) 1,833 ? 54.2°
Maximum altitude 11:58:57 26° 327° (NNW) 1,152 ? 54.2°
Drops below altitude 10° 12:02:45 10° 24° (NNE) 1,986 ? 54.2°
Sets 12:05:32 0° 37° (NE) 2,981 ? 54.2°
